map of HLP home
HLP - Airport
Location
City:  Jakarta, Jawa Barat, Indonesia
Name:Halim Perdanakusuma International Airport
ICAO:WIHH
IATA:HLP

Details
Type:Airport (Aerodrome, Airfield)
Use:Public/Civil, Military, International (customs port of entry)
Latitude:6°16'00"S (-6.266607)
Longitude:106°53'28"E (106.891117)
Datum:WGS 1984
Elevation:84 ft (26 m)
Variation:0.64°E (WMM2015 magnetic declination)
-0.02° annual change
Runways:1
Longest:9843 × 148 ft (3000 × 45 m), paved

Time
Time Zone:UTC+7
Local Time:

Weather
METAR:WIHH 210400Z 00000KT 4000 SCT016 26/23 Q1013 RMK RA TO SE
TAF:WIHH 200500Z 2006/2106 06012KT 8000 SCT018
TEMPO 2009/2012 5000 -RA BKN022

Related Locations
Nearby:
Farthest:RON: 12450 mi / 20037 km
Paipa [Juan José Rondón Airport], BOY, CO

Find:

   beyond  
but within

Other Information
Maps:
NOTAMs:
Links:
Sources:

  
  • flag of Indonesia
  • flag of Jawa Barat
  

Sectional Chart

Flight Planning
at skyvector.com

Satellite Image

Google Maps Satellite view

 

Copyright © 2004-2018 Karl L. Swartz. All rights reserved.
The Great Circle Mapper name and logo are trademarks of the Great Circle Mapper.
All other trademarks mentioned herein belong to their respective owners.
Please see credits for attibutions and further copyright information.

  Follow gcmap on Facebook Follow gcmap on Twitter Follow gcmap on Google+ GCmap on LinkedIn

hCard Microformat

Geo Microformat